sim
Sign-in with your pilot id or email,
or register
Callsign
Passwort

Schedule Details

Flight Number: OEF9052
Departure: Nairobi Jomo Kenyatta International Airport (HKJK) at 22:00
Arrival: Munich Airport (EDDM) at 05:35

Weather Information
Getting current METAR information for HKJK 210200Z 23005KT 9999 FEW012 13/12 Q1021 NOSIG
Getting current METAR information for EDDM 210250Z 00000KT CAVOK 08/08 Q1016 NOSIG

Schedule Frequency

Route Map